| time (UTC) | temp F | wind direction | speed MPH | gust MPH | rain 1hr in | rain 24hr in | rain mn in | humidity % | barometer mb |
| 20260507194558 | 61 | 259 | 3.0 | 9.0 | 0.00 | 0.06 | 0.05 | 38 | 1007.9 |
| 20260507193051 | 61 | 224 | 3.0 | 11.0 | 0.00 | 0.06 | 0.05 | 40 | 1007.8 |
| 20260507191555 | 61 | 129 | 4.0 | 11.0 | 0.00 | 0.06 | 0.05 | 41 | 1008.0 |
| 20260507190047 | 62 | 148 | 7.0 | 14.0 | 0.00 | 0.06 | 0.05 | 39 | 1008.2 |
| 20260507184543 | 63 | 252 | 5.0 | 12.0 | 0.00 | 0.06 | 0.05 | 38 | 1008.1 |
| 20260507183050 | 64 | 204 | 4.0 | 10.0 | 0.00 | 0.06 | 0.05 | 34 | 1008.2 |
| 20260507181537 | 63 | 120 | 0.0 | 8.0 | 0.00 | 0.06 | 0.05 | 31 | 1008.5 |
| 20260507180045 | 63 | 229 | 1.0 | 7.0 | 0.00 | 0.06 | 0.05 | 31 | 1008.6 |
| 20260507174533 | 62 | 349 | 0.0 | 6.0 | 0.00 | 0.06 | 0.05 | 33 | 1008.8 |
| 20260507173030 | 62 | 288 | 1.0 | 4.0 | 0.00 | 0.06 | 0.05 | 32 | 1009.0 |
| 20260507171525 | 61 | 141 | 2.0 | 6.0 | 0.00 | 0.06 | 0.05 | 31 | 1009.2 |
| 20260507170040 | 61 | 248 | 0.0 | 4.0 | 0.00 | 0.06 | 0.05 | 32 | 1009.8 |
| 20260507164518 | 60 | 144 | 2.0 | 6.0 | 0.00 | 0.06 | 0.05 | 32 | 1009.9 |
| 20260507163016 | 59 | 13 | 0.0 | 4.0 | 0.00 | 0.06 | 0.05 | 35 | 1010.4 |
| 20260507161514 | 59 | 78 | 0.0 | 6.0 | 0.00 | 0.06 | 0.05 | 38 | 1010.3 |
| 20260507160010 | 57 | 19 | 2.0 | 7.0 | 0.00 | 0.06 | 0.05 | 38 | 1010.5 |
| 20260507154509 | 57 | 118 | 0.0 | 6.0 | 0.00 | 0.06 | 0.05 | 40 | 1010.5 |
| 20260507153004 | 56 | 41 | 1.0 | 6.0 | 0.00 | 0.06 | 0.05 | 41 | 1010.5 |
| 20260507151501 | 55 | 50 | 0.0 | 6.0 | 0.00 | 0.06 | 0.05 | 42 | 1010.7 |
| 20260507150113 | 55 | 323 | 0.0 | 5.0 | 0.00 | 0.06 | 0.05 | 43 | 1010.9 |
| 20260507144557 | 54 | 61 | 0.0 | 10.0 | 0.00 | 0.12 | 0.05 | 43 | 1010.9 |
| 20260507143105 | 54 | 63 | 0.0 | 4.0 | 0.00 | 0.12 | 0.05 | 44 | 1011.3 |
| 20260507141552 | 54 | 18 | 1.0 | 5.0 | 0.00 | 0.12 | 0.05 | 45 | 1011.5 |
| 20260507140053 | 53 | 23 | 1.0 | 7.0 | 0.00 | 0.12 | 0.05 | 45 | 1011.5 |
| 20260507134547 | 53 | 2 | 3.0 | 8.0 | 0.00 | 0.20 | 0.05 | 44 | 1011.5 |
| 20260507133048 | 53 | 26 | 1.0 | 7.0 | 0.00 | 0.20 | 0.05 | 45 | 1011.8 |
| 20260507131547 | 53 | 306 | 0.0 | 8.0 | 0.00 | 0.20 | 0.05 | 46 | 1011.8 |
| 20260507130046 | 53 | 25 | 0.0 | 5.0 | 0.00 | 0.20 | 0.05 | 47 | 1011.5 |
| 20260507124538 | 53 | 341 | 0.0 | 6.0 | 0.00 | 0.28 | 0.05 | 46 | 1011.6 |
| 20260507123033 | 53 | 31 | 4.0 | 10.0 | 0.00 | 0.28 | 0.05 | 46 | 1011.2 |
| 20260507121527 | 54 | 358 | 4.0 | 10.0 | 0.00 | 0.28 | 0.05 | 48 | 1011.5 |
| 20260507120024 | 54 | 77 | 2.0 | 9.0 | 0.00 | 0.28 | 0.05 | 49 | 1011.5 |
| 20260507114549 | 0 | 0.0 | 0.0 | 0.00 | 0.28 | 0.05 | 1011.4 | ||
| 20260507113047 | 0 | 0.0 | 0.0 | 0.00 | 0.28 | 0.05 | 1011.0 | ||
| 20260507111513 | 0 | 0.0 | 0.0 | 0.00 | 0.28 | 0.05 | 1010.8 | ||
| 20260507110003 | 0 | 0.0 | 0.0 | 0.00 | 0.28 | 0.05 | 1010.6 | ||
| 20260507104603 | 0 | 0.0 | 0.0 | 0.00 | 0.28 | 0.05 | 1010.8 | ||
| 20260507103125 | 54 | 15 | 2.0 | 5.0 | 0.00 | 0.28 | 0.05 | 54 | 1010.4 |
| 20260507101551 | 54 | 326 | 0.0 | 4.0 | 0.00 | 0.28 | 0.05 | 54 | 1010.5 |
| 20260507094548 | 54 | 19 | 0.0 | 4.0 | 0.00 | 0.28 | 0.05 | 54 | 1010.2 |
| 20260507093043 | 54 | 20 | 0.0 | 3.0 | 0.00 | 0.28 | 0.05 | 54 | 1010.1 |
| 20260507091545 | 54 | 20 | 0.0 | 4.0 | 0.00 | 0.28 | 0.05 | 53 | 1010.1 |
| 20260507090041 | 54 | 44 | 0.0 | 4.0 | 0.00 | 0.28 | 0.05 | 53 | 1009.8 |
| 20260507084544 | 54 | 356 | 0.0 | 4.0 | 0.00 | 0.28 | 0.05 | 52 | 1010.0 |
| 20260507083033 | 54 | 26 | 0.0 | 2.0 | 0.00 | 0.28 | 0.05 | 53 | 1009.9 |
| 20260507081530 | 54 | 30 | 0.0 | 1.0 | 0.00 | 0.28 | 0.05 | 55 | 1009.9 |
| 20260507080029 | 54 | 20 | 0.0 | 1.0 | 0.00 | 0.28 | 0.05 | 54 | 1009.9 |
| 20260507074524 | 54 | 34 | 0.0 | 2.0 | 0.00 | 0.28 | 0.05 | 53 | 1009.3 |
| 20260507073023 | 54 | 4 | 0.0 | 6.0 | 0.00 | 0.28 | 0.05 | 53 | 1009.2 |
| 20260507071522 | 54 | 13 | 3.0 | 7.0 | 0.00 | 0.28 | 0.05 | 52 | 1009.1 |
| 20260507070017 | 54 | 360 | 1.0 | 10.0 | 0.00 | 0.28 | 0.05 | 52 | 1009.1 |
| 20260507064513 | 54 | 35 | 1.0 | 10.0 | 0.00 | 0.28 | 0.05 | 52 | 1009.3 |
| 20260507063008 | 55 | 15 | 3.0 | 10.0 | 0.00 | 0.28 | 0.05 | 53 | 1009.5 |
| 20260507061509 | 55 | 359 | 1.0 | 4.0 | 0.02 | 0.28 | 0.05 | 54 | 1009.7 |
| 20260507060005 | 55 | 28 | 0.0 | 7.0 | 0.02 | 0.28 | 0.05 | 55 | 1009.3 |
| 20260507054615 | 55 | 17 | 3.0 | 11.0 | 0.03 | 0.28 | 0.05 | 54 | 1009.1 |
| 20260507053106 | 55 | 19 | 4.0 | 11.0 | 0.04 | 0.28 | 0.05 | 55 | 1009.2 |
| 20260507051558 | 56 | 34 | 2.0 | 7.0 | 0.03 | 0.28 | 0.04 | 55 | 1009.2 |
| 20260507050054 | 56 | 93 | 1.0 | 5.0 | 0.03 | 0.27 | 0.03 | 56 | 1008.8 |
| 20260507044553 | 57 | 69 | 3.0 | 7.0 | 0.03 | 0.26 | 0.02 | 58 | 1009.1 |
| 20260507043039 | 58 | 19 | 2.0 | 9.0 | 0.02 | 0.25 | 0.01 | 57 | 1008.8 |
| 20260507041534 | 59 | 72 | 0.0 | 5.0 | 0.02 | 0.25 | 0.01 | 58 | 1009.7 |
| 20260507040036 | 60 | 8 | 1.0 | 7.0 | 0.01 | 0.24 | 0.00 | 59 | 1009.5 |
| 20260507034527 | 61 | 298 | 2.0 | 9.0 | 0.00 | 0.23 | 0.23 | 57 | 1008.6 |
| 20260507033024 | 62 | 21 | 3.0 | 6.0 | 0.00 | 0.23 | 0.23 | 55 | 1008.7 |
| 20260507031523 | 62 | 15 | 5.0 | 14.0 | 0.00 | 0.23 | 0.23 | 54 | 1008.6 |
| 20260507030023 | 63 | 36 | 2.0 | 11.0 | 0.00 | 0.23 | 0.23 | 53 | 1008.9 |
| 20260507024518 | 63 | 51 | 4.0 | 12.0 | 0.00 | 0.23 | 0.23 | 53 | 1008.1 |
| 20260507023016 | 64 | 14 | 1.0 | 12.0 | 0.00 | 0.23 | 0.23 | 53 | 1008.2 |
| 20260507021513 | 64 | 46 | 3.0 | 10.0 | 0.00 | 0.23 | 0.23 | 54 | 1008.1 |
| 20260507020013 | 64 | 31 | 3.0 | 9.0 | 0.00 | 0.23 | 0.23 | 54 | 1007.6 |
| 20260507014509 | 65 | 46 | 0.0 | 6.0 | 0.00 | 0.23 | 0.23 | 54 | 1007.4 |
| 20260507013007 | 65 | 49 | 2.0 | 8.0 | 0.00 | 0.23 | 0.23 | 55 | 1007.6 |
| 20260507011504 | 66 | 359 | 2.0 | 8.0 | 0.00 | 0.23 | 0.23 | 55 | 1007.7 |
| 20260507010001 | 66 | 34 | 2.0 | 7.0 | 0.00 | 0.23 | 0.23 | 57 | 1008.1 |
| 20260507004559 | 67 | 20 | 0.0 | 1.0 | 0.00 | 0.23 | 0.23 | 57 | 1007.6 |
| 20260507003056 | 67 | 342 | 0.0 | 1.0 | 0.00 | 0.23 | 0.23 | 58 | 1007.5 |
| 20260507001602 | 68 | 352 | 0.0 | 1.0 | 0.00 | 0.23 | 0.23 | 58 | 1007.3 |
| 20260507000118 | 68 | 14 | 0.0 | 4.0 | 0.00 | 0.23 | 0.23 | 58 | 1007.2 |
| 20260506234607 | 68 | 338 | 0.0 | 0.0 | 0.00 | 0.23 | 0.23 | 58 | 1006.9 |
| 20260506233050 | 69 | 286 | 0.0 | 1.0 | 0.00 | 0.23 | 0.23 | 56 | 1006.6 |
| 20260506231544 | 69 | 238 | 0.0 | 3.0 | 0.00 | 0.23 | 0.23 | 55 | 1006.5 |
| 20260506230041 | 70 | 236 | 0.0 | 4.0 | 0.00 | 0.23 | 0.23 | 54 | 1006.4 |
| 20260506224538 | 70 | 238 | 1.0 | 8.0 | 0.00 | 0.23 | 0.23 | 54 | 1006.4 |
| 20260506223033 | 70 | 259 | 2.0 | 6.0 | 0.00 | 0.23 | 0.23 | 54 | 1006.3 |
| 20260506221530 | 70 | 266 | 2.0 | 8.0 | 0.00 | 0.23 | 0.23 | 53 | 1006.4 |
| 20260506220025 | 70 | 231 | 1.0 | 8.0 | 0.00 | 0.23 | 0.23 | 53 | 1006.4 |
| 20260506214523 | 70 | 230 | 4.0 | 10.0 | 0.00 | 0.23 | 0.23 | 53 | 1006.5 |
| 20260506213022 | 70 | 214 | 3.0 | 10.0 | 0.00 | 0.23 | 0.23 | 53 | 1006.5 |
| 20260506211536 | 70 | 252 | 4.0 | 13.0 | 0.00 | 0.23 | 0.23 | 53 | 1006.4 |
| 20260506210031 | 70 | 236 | 6.0 | 11.0 | 0.00 | 0.23 | 0.23 | 53 | 1006.4 |
| 20260506204522 | 69 | 261 | 4.0 | 10.0 | 0.00 | 0.23 | 0.23 | 54 | 1006.3 |
| 20260506203016 | 70 | 222 | 5.0 | 11.0 | 0.00 | 0.23 | 0.23 | 53 | 1005.9 |
| 20260506201614 | 69 | 321 | 8.0 | 15.0 | 0.00 | 0.23 | 0.23 | 52 | 1006.2 |
| 20260506200012 | 69 | 217 | 3.0 | 9.0 | 0.00 | 0.23 | 0.23 | 53 | 1006.3 |